Time,TemperatureF,DewpointF,PressureIn,WindDirection,WindDirectionDegrees,WindSpeedMPH,WindSpeedGustMPH,Humidity,HourlyPrecipIn,Conditions,Clouds,dailyrainin,SoftwareType,DateUTC
2013-02-14 00:07:00,-999.0,-99.9,29.95,North,-999,-999.0,-999.0,-999,-99.99,,,0.00,weatherlink.com 1.10,2013-02-14 05:07:00,
2013-02-14 00:22:00,-999.0,-99.9,29.95,North,-999,-999.0,-999.0,-999,-99.99,,,0.00,weatherlink.com 1.10,2013-02-14 05:22:00,
2013-02-14 00:37:00,-999.0,-99.9,29.94,North,-999,-999.0,-999.0,-999,-99.99,,,0.00,weatherlink.com 1.10,2013-02-14 05:37:00,
2013-02-14 00:52:00,-999.0,-99.9,29.93,North,-999,-999.0,-999.0,-999,-99.99,,,0.00,weatherlink.com 1.10,2013-02-14 05:52:00,
2013-02-14 01:07:00,-999.0,-99.9,29.94,North,-999,-999.0,-999.0,-999,-99.99,,,0.00,weatherlink.com 1.10,2013-02-14 06:07:00,
2013-02-14 01:22:00,-999.0,-99.9,29.94,North,-999,-999.0,-999.0,-999,-99.99,,,0.00,weatherlink.com 1.10,2013-02-14 06:22:00,
2013-02-14 01:37:00,-999.0,-99.9,29.94,North,-999,-999.0,-999.0,-999,-99.99,,,0.00,weatherlink.com 1.10,2013-02-14 06:37:00,
2013-02-14 01:52:00,-999.0,-99.9,29.92,North,-999,-999.0,-999.0,-999,-99.99,,,0.00,weatherlink.com 1.10,2013-02-14 06:52:00,
2013-02-14 02:07:00,-999.0,-99.9,29.91,North,-999,-999.0,-999.0,-999,-99.99,,,0.00,weatherlink.com 1.10,2013-02-14 07:07:00,
2013-02-14 02:22:00,-999.0,-99.9,29.92,North,-999,-999.0,-999.0,-999,-99.99,,,0.00,weatherlink.com 1.10,2013-02-14 07:22:00,
2013-02-14 02:37:00,-999.0,-99.9,29.91,North,-999,-999.0,-999.0,-999,-99.99,,,0.00,weatherlink.com 1.10,2013-02-14 07:37:00,
2013-02-14 02:52:00,-999.0,-99.9,29.91,North,-999,-999.0,-999.0,-999,-99.99,,,0.00,weatherlink.com 1.10,2013-02-14 07:52:00,
2013-02-14 03:07:00,-999.0,-99.9,29.91,North,-999,-999.0,-999.0,-999,-99.99,,,0.00,weatherlink.com 1.10,2013-02-14 08:07:00,
2013-02-14 03:22:00,-999.0,-99.9,29.91,North,-999,-999.0,-999.0,-999,-99.99,,,0.00,weatherlink.com 1.10,2013-02-14 08:22:00,
2013-02-14 03:37:00,-999.0,-99.9,29.90,North,-999,-999.0,-999.0,-999,-99.99,,,0.00,weatherlink.com 1.10,2013-02-14 08:37:00,
2013-02-14 03:52:00,-999.0,-99.9,29.90,North,-999,-999.0,-999.0,-999,-99.99,,,0.00,weatherlink.com 1.10,2013-02-14 08:52:00,
2013-02-14 04:07:00,-999.0,-99.9,29.90,North,-999,-999.0,-999.0,-999,-99.99,,,0.00,weatherlink.com 1.10,2013-02-14 09:07:00,
2013-02-14 04:22:00,-999.0,-99.9,29.91,North,-999,-999.0,-999.0,-999,-99.99,,,0.00,weatherlink.com 1.10,2013-02-14 09:22:00,
2013-02-14 04:37:00,-999.0,-99.9,29.90,North,-999,-999.0,-999.0,-999,-99.99,,,0.00,weatherlink.com 1.10,2013-02-14 09:37:00,
2013-02-14 04:52:00,-999.0,-99.9,29.89,North,-999,-999.0,-999.0,-999,-99.99,,,0.00,weatherlink.com 1.10,2013-02-14 09:52:00,
2013-02-14 05:07:00,-999.0,-99.9,29.90,North,-999,-999.0,-999.0,-999,-99.99,,,0.00,weatherlink.com 1.10,2013-02-14 10:07:00,
2013-02-14 05:22:00,-999.0,-99.9,29.89,North,-999,-999.0,-999.0,-999,-99.99,,,0.00,weatherlink.com 1.10,2013-02-14 10:22:00,
2013-02-14 05:37:00,-999.0,-99.9,29.91,North,-999,-999.0,-999.0,-999,-99.99,,,0.00,weatherlink.com 1.10,2013-02-14 10:37:00,
2013-02-14 05:52:00,-999.0,-99.9,29.91,North,-999,-999.0,-999.0,-999,-99.99,,,0.00,weatherlink.com 1.10,2013-02-14 10:52:00,
2013-02-14 06:07:00,-999.0,-99.9,29.91,North,-999,-999.0,-999.0,-999,-99.99,,,0.00,weatherlink.com 1.10,2013-02-14 11:07:00,
2013-02-14 06:22:00,-999.0,-99.9,29.93,North,-999,-999.0,-999.0,-999,-99.99,,,0.00,weatherlink.com 1.10,2013-02-14 11:22:00,
2013-02-14 06:37:00,-999.0,-99.9,29.93,North,-999,-999.0,-999.0,-999,-99.99,,,0.00,weatherlink.com 1.10,2013-02-14 11:37:00,
2013-02-14 06:52:00,-999.0,-99.9,29.93,North,-999,-999.0,-999.0,-999,-99.99,,,0.00,weatherlink.com 1.10,2013-02-14 11:52:00,
2013-02-14 07:07:00,-999.0,-99.9,29.94,North,-999,-999.0,-999.0,-999,-99.99,,,0.00,weatherlink.com 1.10,2013-02-14 12:07:00,
2013-02-14 07:22:00,-999.0,-99.9,29.94,North,-999,-999.0,-999.0,-999,-99.99,,,0.00,weatherlink.com 1.10,2013-02-14 12:22:00,
2013-02-14 07:37:00,-999.0,-99.9,29.94,North,-999,-999.0,-999.0,-999,-99.99,,,0.00,weatherlink.com 1.10,2013-02-14 12:37:00,
2013-02-14 07:52:00,-999.0,-99.9,29.95,North,-999,-999.0,-999.0,-999,-99.99,,,0.00,weatherlink.com 1.10,2013-02-14 12:52:00,
2013-02-14 08:07:00,-999.0,-99.9,29.95,North,-999,-999.0,-999.0,-999,-99.99,,,0.00,weatherlink.com 1.10,2013-02-14 13:07:00,
2013-02-14 08:22:00,-999.0,-99.9,29.95,North,-999,-999.0,-999.0,-999,-99.99,,,0.00,weatherlink.com 1.10,2013-02-14 13:22:00,
2013-02-14 08:37:00,-999.0,-99.9,29.95,North,-999,-999.0,-999.0,-999,-99.99,,,0.00,weatherlink.com 1.10,2013-02-14 13:37:00,
2013-02-14 08:52:00,-999.0,-99.9,29.96,North,-999,-999.0,-999.0,-999,-99.99,,,0.00,weatherlink.com 1.10,2013-02-14 13:52:00,
2013-02-14 09:07:00,-999.0,-99.9,29.97,North,-999,-999.0,-999.0,-999,-99.99,,,0.00,weatherlink.com 1.10,2013-02-14 14:07:00,
2013-02-14 09:22:00,-999.0,-99.9,29.98,North,-999,-999.0,-999.0,-999,-99.99,,,0.00,weatherlink.com 1.10,2013-02-14 14:22:00,
2013-02-14 09:37:00,-999.0,-99.9,29.98,North,-999,-999.0,-999.0,-999,-99.99,,,0.00,weatherlink.com 1.10,2013-02-14 14:37:00,
2013-02-14 09:52:00,-999.0,-99.9,30.00,North,-999,-999.0,-999.0,-999,-99.99,,,0.00,weatherlink.com 1.10,2013-02-14 14:52:00,
2013-02-14 10:07:00,-999.0,-99.9,30.00,North,-999,-999.0,-999.0,-999,-99.99,,,0.00,weatherlink.com 1.10,2013-02-14 15:07:00,
2013-02-14 10:22:00,-999.0,-99.9,30.01,North,-999,-999.0,-999.0,-999,-99.99,,,0.00,weatherlink.com 1.10,2013-02-14 15:22:00,
2013-02-14 10:37:00,-999.0,-99.9,30.00,North,-999,-999.0,-999.0,-999,-99.99,,,0.00,weatherlink.com 1.10,2013-02-14 15:37:00,
2013-02-14 10:52:00,-999.0,-99.9,30.01,North,-999,-999.0,-999.0,-999,-99.99,,,0.00,weatherlink.com 1.10,2013-02-14 15:52:00,
2013-02-14 11:07:00,-999.0,-99.9,30.01,North,-999,-999.0,-999.0,-999,-99.99,,,0.00,weatherlink.com 1.10,2013-02-14 16:07:00,
2013-02-14 11:22:00,-999.0,-99.9,30.02,North,-999,-999.0,-999.0,-999,-99.99,,,0.00,weatherlink.com 1.10,2013-02-14 16:22:00,
2013-02-14 11:37:00,-999.0,-99.9,30.00,North,-999,-999.0,-999.0,-999,-99.99,,,0.00,weatherlink.com 1.10,2013-02-14 16:37:00,
2013-02-14 11:52:00,-999.0,-99.9,30.01,North,-999,-999.0,-999.0,-999,-99.99,,,0.00,weatherlink.com 1.10,2013-02-14 16:52:00,
2013-02-14 12:07:00,-999.0,-99.9,30.00,North,-999,-999.0,-999.0,-999,-99.99,,,0.00,weatherlink.com 1.10,2013-02-14 17:07:00,
2013-02-14 12:22:00,-999.0,-99.9,30.00,North,-999,-999.0,-999.0,-999,-99.99,,,0.00,weatherlink.com 1.10,2013-02-14 17:22:00,
2013-02-14 12:37:00,-999.0,-99.9,29.97,North,-999,-999.0,-999.0,-999,-99.99,,,0.00,weatherlink.com 1.10,2013-02-14 17:37:00,
2013-02-14 12:52:00,-999.0,-99.9,29.96,North,-999,-999.0,-999.0,-999,-99.99,,,0.00,weatherlink.com 1.10,2013-02-14 17:52:00,
2013-02-14 13:07:00,61.6,60.0,29.96,East,98,5.0,-999.0,93,-99.99,,,0.00,weatherlink.com 1.10,2013-02-14 18:07:00,
2013-02-14 13:22:00,62.2,61.0,29.94,ESE,102,6.0,-999.0,94,-99.99,,,0.00,weatherlink.com 1.10,2013-02-14 18:22:00,
2013-02-14 13:37:00,62.2,60.0,29.96,ESE,103,2.0,-999.0,93,-99.99,,,0.00,weatherlink.com 1.10,2013-02-14 18:37:00,
2013-02-14 13:52:00,62.2,60.0,29.94,ESE,103,4.0,-999.0,92,-99.99,,,0.00,weatherlink.com 1.10,2013-02-14 18:52:00,
2013-02-14 14:07:00,62.5,61.0,29.93,ESE,103,2.0,-999.0,93,-99.99,,,0.00,weatherlink.com 1.10,2013-02-14 19:07:00,
2013-02-14 14:22:00,62.6,61.0,29.94,NNE,13,5.0,-999.0,94,-99.99,,,0.00,weatherlink.com 1.10,2013-02-14 19:22:00,
2013-02-14 14:37:00,62.5,61.0,29.94,NNE,15,3.0,-999.0,93,-99.99,,,0.00,weatherlink.com 1.10,2013-02-14 19:37:00,
2013-02-14 14:52:00,62.4,60.0,29.95,NNE,15,0.0,-999.0,93,-99.99,,,0.00,weatherlink.com 1.10,2013-02-14 19:52:00,
2013-02-14 15:07:00,62.6,61.0,29.94,NNE,15,1.0,-999.0,93,-99.99,,,0.00,weatherlink.com 1.10,2013-02-14 20:07:00,
2013-02-14 15:22:00,62.5,61.0,29.93,NNE,15,3.0,-999.0,93,-99.99,,,0.00,weatherlink.com 1.10,2013-02-14 20:22:00,
2013-02-14 15:37:00,62.8,61.0,29.92,NNE,15,3.0,-999.0,92,-99.99,,,0.00,weatherlink.com 1.10,2013-02-14 20:37:00,
2013-02-14 15:52:00,62.8,61.0,29.92,NNE,25,2.0,-999.0,92,-99.99,,,0.00,weatherlink.com 1.10,2013-02-14 20:52:00,
2013-02-14 16:07:00,-999.0,-99.9,29.94,North,-999,-999.0,-999.0,-999,-99.99,,,0.00,weatherlink.com 1.10,2013-02-14 21:07:00,
2013-02-14 16:22:00,-999.0,-99.9,29.94,North,-999,-999.0,-999.0,-999,-99.99,,,0.00,weatherlink.com 1.10,2013-02-14 21:22:00,
2013-02-14 16:37:00,-999.0,-99.9,29.95,North,-999,-999.0,-999.0,-999,-99.99,,,0.00,weatherlink.com 1.10,2013-02-14 21:37:00,
2013-02-14 16:52:00,-999.0,-99.9,29.95,North,-999,-999.0,-999.0,-999,-99.99,,,0.00,weatherlink.com 1.10,2013-02-14 21:52:00,
2013-02-14 17:07:00,-999.0,-99.9,29.94,North,-999,-999.0,-999.0,-999,-99.99,,,0.00,weatherlink.com 1.10,2013-02-14 22:07:00,
2013-02-14 17:22:00,-999.0,-99.9,29.94,North,-999,-999.0,-999.0,-999,-99.99,,,0.00,weatherlink.com 1.10,2013-02-14 22:22:00,
2013-02-14 17:37:00,-999.0,-99.9,29.96,North,-999,-999.0,-999.0,-999,-99.99,,,0.00,weatherlink.com 1.10,2013-02-14 22:37:00,
2013-02-14 17:52:00,-999.0,-99.9,29.95,North,-999,-999.0,-999.0,-999,-99.99,,,0.00,weatherlink.com 1.10,2013-02-14 22:52:00,
2013-02-14 18:07:00,-999.0,-99.9,29.97,North,-999,-999.0,-999.0,-999,-99.99,,,0.00,weatherlink.com 1.10,2013-02-14 23:07:00,
2013-02-14 18:22:00,-999.0,-99.9,29.98,North,-999,-999.0,-999.0,-999,-99.99,,,0.00,weatherlink.com 1.10,2013-02-14 23:22:00,
2013-02-14 18:37:00,-999.0,-99.9,29.98,North,-999,-999.0,-999.0,-999,-99.99,,,0.00,weatherlink.com 1.10,2013-02-14 23:37:00,
2013-02-14 18:52:00,-999.0,-99.9,29.98,North,-999,-999.0,-999.0,-999,-99.99,,,0.00,weatherlink.com 1.10,2013-02-14 23:52:00,
2013-02-14 19:07:00,-999.0,-99.9,29.97,North,-999,-999.0,-999.0,-999,-99.99,,,0.00,weatherlink.com 1.10,2013-02-15 00:07:00,
2013-02-14 19:22:00,-999.0,-99.9,29.97,North,-999,-999.0,-999.0,-999,-99.99,,,0.00,weatherlink.com 1.10,2013-02-15 00:22:00,
2013-02-14 19:37:00,-999.0,-99.9,29.98,North,-999,-999.0,-999.0,-999,-99.99,,,0.00,weatherlink.com 1.10,2013-02-15 00:37:00,
2013-02-14 19:52:00,-999.0,-99.9,29.96,North,-999,-999.0,-999.0,-999,-99.99,,,0.00,weatherlink.com 1.10,2013-02-15 00:52:00,
2013-02-14 20:07:00,-999.0,-99.9,29.98,North,-999,-999.0,-999.0,-999,-99.99,,,0.00,weatherlink.com 1.10,2013-02-15 01:07:00,
2013-02-14 20:22:00,-999.0,-99.9,29.99,North,-999,-999.0,-999.0,-999,-99.99,,,0.00,weatherlink.com 1.10,2013-02-15 01:22:00,
2013-02-14 20:37:00,-999.0,-99.9,29.98,North,-999,-999.0,-999.0,-999,-99.99,,,0.00,weatherlink.com 1.10,2013-02-15 01:37:00,
2013-02-14 20:52:00,-999.0,-99.9,29.97,North,-999,-999.0,-999.0,-999,-99.99,,,0.00,weatherlink.com 1.10,2013-02-15 01:52:00,
2013-02-14 21:07:00,-999.0,-99.9,29.97,North,-999,-999.0,-999.0,-999,-99.99,,,0.00,weatherlink.com 1.10,2013-02-15 02:07:00,
2013-02-14 21:22:00,-999.0,-99.9,29.96,North,-999,-999.0,-999.0,-999,-99.99,,,0.00,weatherlink.com 1.10,2013-02-15 02:22:00,
2013-02-14 21:37:00,-999.0,-99.9,29.98,North,-999,-999.0,-999.0,-999,-99.99,,,0.00,weatherlink.com 1.10,2013-02-15 02:37:00,
2013-02-14 21:52:00,-999.0,-99.9,30.01,North,-999,-999.0,-999.0,-999,-99.99,,,0.00,weatherlink.com 1.10,2013-02-15 02:52:00,
2013-02-14 22:07:00,-999.0,-99.9,30.00,North,-999,-999.0,-999.0,-999,-99.99,,,0.00,weatherlink.com 1.10,2013-02-15 03:07:00,
2013-02-14 22:22:00,-999.0,-99.9,29.99,North,-999,-999.0,-999.0,-999,-99.99,,,0.00,weatherlink.com 1.10,2013-02-15 03:22:00,
2013-02-14 22:37:00,-999.0,-99.9,29.97,North,-999,-999.0,-999.0,-999,-99.99,,,0.00,weatherlink.com 1.10,2013-02-15 03:37:00,
2013-02-14 22:52:00,-999.0,-99.9,29.97,North,-999,-999.0,-999.0,-999,-99.99,,,0.00,weatherlink.com 1.10,2013-02-15 03:52:00,
2013-02-14 23:07:00,-999.0,-99.9,29.96,North,-999,-999.0,-999.0,-999,-99.99,,,0.00,weatherlink.com 1.10,2013-02-15 04:07:00,
2013-02-14 23:22:00,-999.0,-99.9,29.98,North,-999,-999.0,-999.0,-999,-99.99,,,0.00,weatherlink.com 1.10,2013-02-15 04:22:00,
2013-02-14 23:37:00,-999.0,-99.9,29.96,North,-999,-999.0,-999.0,-999,-99.99,,,0.00,weatherlink.com 1.10,2013-02-15 04:37:00,
2013-02-14 23:52:00,-999.0,-99.9,29.96,North,-999,-999.0,-999.0,-999,-99.99,,,0.00,weatherlink.com 1.10,2013-02-15 04:52:00,